This demonstration page uses our WeatherBlox Daily Observations layout. Learn more.

Left ArrowRight Arrow

Hourly Observations for August 9, 2019

Temp ( °F °C ) Dew Point ( °F °C ) Humidity (%) Winds ( mph kmh ) Pressure ( in mb ) Visibility ( mi km ) Precip ( " mm )
12:53 am 00:53 Clear 88 31.1 60 15.6 39 39 SSE 16 26 29.76 1008 10 16 0.00 0.00
1:53 am 01:53 Clear 86 30 60 15.6 42 42 SE 10 17 29.75 1008 10 16 0.00 0.00
2:53 am 02:53 Clear 84 28.9 61 16.1 46 46 SE 9 15 29.73 1007 10 16 0.00 0.00
3:53 am 03:53 Clear 83 28.3 61 16.1 48 48 SE 8 13 29.72 1007 10 16 0.00 0.00
4:53 am 04:53 Clear 82 27.8 61 16.1 49 49 ESE 10 17 29.73 1007 10 16 0.00 0.00
5:53 am 05:53 Clear 79 26.1 61 16.1 54 54 SE 10 17 29.75 1007 10 16 0.00 0.00
6:53 am 06:53 Clear 79 26.1 60 15.6 52 52 ESE 12 19 29.77 1008 10 16 0.00 0.00
7:53 am 07:53 Sunny 79 26.1 61 16.1 54 54 SE 12 19 29.79 1009 10 16 0.00 0.00
8:53 am 08:53 Sunny 82 27.8 63 17.2 53 53 SSE 13 20 29.80 1009 10 16 0.00 0.00
9:53 am 09:53 Sunny 85 29.4 64 17.8 50 50 SE 14 22 29.80 1009 10 16 0.00 0.00
10:53 am 10:53 Sunny 89 31.7 63 17.2 42 42 SE 10 17 29.81 1009 10 16 0.00 0.00
11:53 am 11:53 Sunny 92 33.3 62 16.7 37 37 SE 8 13 29.80 1009 10 16 0.00 0.00
12:53 pm 12:53 Sunny 96 35.6 60 15.6 30 30 VRB 6 9 29.78 1009 10 16 0.00 0.00
1:53 pm 13:53 Sunny 99 37.2 57 13.9 25 25 ENE 8 13 29.75 1008 10 16 0.00 0.00
2:53 pm 14:53 Sunny 100 37.8 56 13.3 23 23 VRB 3 6 29.73 1007 10 16 0.00 0.00
3:53 pm 15:53 Sunny 103 39.4 54 12.2 20 20 ENE 9 15 29.71 1006 10 16 0.00 0.00
4:53 pm 16:53 Sunny 104 40 52 11.1 18 18 ENE 9 15 29.67 1005 10 16 0.00 0.00
5:53 pm 17:53 Sunny 104 40 52 11.1 18 18 SE 10 17 29.66 1004 10 16 0.00 0.00
6:53 pm 18:53 Sunny 102 38.9 56 13.3 22 22 SE 16 26 29.65 1004 10 16 0.00 0.00
7:53 pm 19:53 Sunny 99 37.2 59 15 27 27 SSE 16 26 29.68 1005 10 16 0.00 0.00
8:53 pm 20:53 Clear 97 36.1 60 15.6 29 29 SSE 14 22 29.71 1006 10 16 0.00 0.00
9:10 pm 21:10 Mostly Cloudy with Haze 91 32.8 61 16.1 37 37 SSW 14 22 29.65 1004 4 6 0.00 0.00
9:19 pm 21:19 Mostly Cloudy with Haze 90 32.2 61 16.1 38 38 S 12 19 29.65 1004 4 6 0.00 0.00
9:33 pm 21:33 Partly Cloudy 90 32.2 61 16.1 38 38 S 9 15 29.66 1005 7 11 0.00 0.00
9:53 pm 21:53 Clear 89 31.7 61 16.1 39 39 SSE 9 15 29.74 1007 7 11 0.00 0.00
10:53 pm 22:53 Clear 89 31.7 59 15 36 36 SE 13 20 29.74 1007 10 16 0.00 0.00
11:53 pm 23:53 Clear 87 30.6 58 14.4 37 37 SSE 12 19 29.74 1007 10 16 0.00 0.00

Powered by AerisWeather